Time,TemperatureF,DewpointF,PressureIn,WindDirection,WindDirectionDegrees,WindSpeedMPH,WindSpeedGustMPH,Humidity,HourlyPrecipIn,Conditions,Clouds,dailyrainin,SoftwareType,DateUTC
2014-01-13 00:00:00,33.8,27.4,29.89,SSW,202,5.0,5.0,77,0.00,,,0.00,Wunderground v.1.15,2014-01-13 05:00:00,
2014-01-13 00:01:00,33.8,27.4,29.89,SSW,200,5.0,5.0,77,0.00,,,0.00,Wunderground v.1.15,2014-01-13 05:01:00,
2014-01-13 00:02:00,33.9,27.4,29.89,SSW,205,5.0,5.0,77,0.00,,,0.00,Wunderground v.1.15,2014-01-13 05:02:00,
2014-01-13 00:03:00,33.9,27.4,29.88,SSW,204,5.0,5.0,77,0.00,,,0.00,Wunderground v.1.15,2014-01-13 05:03:00,
2014-01-13 00:04:00,33.8,27.4,29.88,South,184,5.0,8.0,77,0.00,,,0.00,Wunderground v.1.15,2014-01-13 05:04:00,
2014-01-13 00:05:00,33.8,27.4,29.88,SW,216,5.0,8.0,77,0.00,,,0.00,Wunderground v.1.15,2014-01-13 05:05:00,
2014-01-13 00:11:00,34.0,28.0,29.88,SSW,198,3.0,9.0,77,0.00,,,0.00,weatherlink.com 1.10,2014-01-13 05:11:00,
2014-01-13 00:16:00,34.2,27.7,29.88,SSW,207,5.0,5.0,77,0.00,,,0.00,Wunderground v.1.15,2014-01-13 05:16:00,
2014-01-13 00:20:00,34.2,27.7,29.87,SSW,194,4.0,4.0,77,0.00,,,0.00,Wunderground v.1.15,2014-01-13 05:20:00,
2014-01-13 00:25:00,34.4,28.0,29.87,South,191,4.0,11.0,76,0.00,,,0.00,weatherlink.com 1.10,2014-01-13 05:25:00,
2014-01-13 00:31:00,34.6,27.8,29.88,SW,222,5.0,10.0,76,0.00,,,0.00,Wunderground v.1.15,2014-01-13 05:31:00,
2014-01-13 00:36:00,34.7,27.6,29.87,SSW,207,5.0,10.0,75,0.00,,,0.00,Wunderground v.1.15,2014-01-13 05:36:00,
2014-01-13 00:42:00,34.9,27.8,29.88,SW,234,5.0,10.0,75,0.00,,,0.00,Wunderground v.1.15,2014-01-13 05:42:00,
2014-01-13 00:47:00,34.9,27.8,29.88,SSW,202,4.0,10.0,75,0.00,,,0.00,Wunderground v.1.15,2014-01-13 05:47:00,
2014-01-13 00:53:00,35.0,27.5,29.88,SW,224,4.0,10.0,74,0.00,,,0.00,Wunderground v.1.15,2014-01-13 05:53:00,
2014-01-13 00:59:00,35.2,27.7,29.88,SSW,195,4.0,10.0,74,0.00,,,0.00,Wunderground v.1.15,2014-01-13 05:59:00,
2014-01-13 01:05:00,35.6,27.8,29.87,SSW,204,5.0,9.0,73,0.00,,,0.00,Wunderground v.1.15,2014-01-13 06:05:00,
2014-01-13 01:11:00,35.9,28.0,29.86,SSW,205,8.0,12.0,72,0.00,,,0.00,weatherlink.com 1.10,2014-01-13 06:11:00,
2014-01-13 01:16:00,36.0,27.8,29.86,SW,214,6.0,12.0,72,0.00,,,0.00,Wunderground v.1.15,2014-01-13 06:16:00,
2014-01-13 01:22:00,36.2,28.0,29.87,SSW,197,5.0,6.0,72,0.00,,,0.00,Wunderground v.1.15,2014-01-13 06:22:00,
2014-01-13 01:27:00,36.3,28.0,29.87,WSW,243,6.0,10.0,72,0.00,,,0.00,weatherlink.com 1.10,2014-01-13 06:27:00,
2014-01-13 01:33:00,36.4,28.2,29.87,SW,236,5.0,11.0,72,0.00,,,0.00,Wunderground v.1.15,2014-01-13 06:33:00,
2014-01-13 01:38:00,36.6,28.1,29.86,SSW,201,5.0,11.0,71,0.00,,,0.00,Wunderground v.1.15,2014-01-13 06:38:00,
2014-01-13 01:44:00,36.7,28.5,29.87,SW,224,5.0,11.0,72,0.00,,,0.00,Wunderground v.1.15,2014-01-13 06:44:00,
2014-01-13 01:50:00,36.8,28.6,29.87,SSW,200,5.0,5.0,72,0.00,,,0.00,Wunderground v.1.15,2014-01-13 06:50:00,
2014-01-13 01:56:00,36.9,29.0,29.87,WSW,241,5.0,10.0,72,0.00,,,0.00,weatherlink.com 1.10,2014-01-13 06:56:00,
2014-01-13 02:01:00,37.0,28.8,29.87,SW,232,4.0,7.0,72,0.00,,,0.00,Wunderground v.1.15,2014-01-13 07:01:00,
2014-01-13 02:06:00,37.1,28.6,29.87,WSW,244,4.0,7.0,71,0.00,,,0.00,Wunderground v.1.15,2014-01-13 07:06:00,
2014-01-13 02:12:00,37.1,28.0,29.88,SW,231,4.0,9.0,71,0.00,,,0.00,weatherlink.com 1.10,2014-01-13 07:12:00,
2014-01-13 02:19:00,37.2,28.7,29.88,WSW,240,3.0,4.0,71,0.00,,,0.00,Wunderground v.1.15,2014-01-13 07:19:00,
2014-01-13 02:25:00,37.3,28.8,29.88,SSW,206,3.0,4.0,71,0.00,,,0.00,Wunderground v.1.15,2014-01-13 07:25:00,
2014-01-13 02:30:00,37.4,28.9,29.88,SSW,207,3.0,4.0,71,0.00,,,0.00,Wunderground v.1.15,2014-01-13 07:30:00,
2014-01-13 02:36:00,37.4,28.5,29.88,SSW,212,3.0,15.0,70,0.00,,,0.00,Wunderground v.1.15,2014-01-13 07:36:00,
2014-01-13 02:41:00,37.5,29.0,29.88,WSW,238,3.0,8.0,70,0.00,,,0.00,weatherlink.com 1.10,2014-01-13 07:41:00,
2014-01-13 02:47:00,37.5,28.6,29.89,SSW,198,3.0,15.0,70,0.00,,,0.00,Wunderground v.1.15,2014-01-13 07:47:00,
2014-01-13 02:52:00,37.3,28.4,29.88,SSW,203,3.0,15.0,70,0.00,,,0.00,Wunderground v.1.15,2014-01-13 07:52:00,
2014-01-13 02:58:00,37.3,28.0,29.88,SSW,206,3.0,7.0,70,0.00,,,0.00,weatherlink.com 1.10,2014-01-13 07:58:00,
2014-01-13 03:03:00,37.3,28.4,29.88,SW,214,3.0,4.0,70,0.00,,,0.00,Wunderground v.1.15,2014-01-13 08:03:00,
2014-01-13 03:09:00,37.6,28.7,29.88,SSW,195,4.0,5.0,70,0.00,,,0.00,Wunderground v.1.15,2014-01-13 08:09:00,
2014-01-13 03:14:00,37.8,28.9,29.88,SSW,203,4.0,6.0,70,0.00,,,0.00,Wunderground v.1.15,2014-01-13 08:14:00,
2014-01-13 03:20:00,37.9,29.0,29.87,SW,234,4.0,4.0,70,0.00,,,0.00,Wunderground v.1.15,2014-01-13 08:20:00,
2014-01-13 03:25:00,37.9,29.0,29.87,SW,229,4.0,8.0,70,0.00,,,0.00,Wunderground v.1.15,2014-01-13 08:25:00,
2014-01-13 03:31:00,38.0,29.1,29.87,SW,231,4.0,9.0,70,0.00,,,0.00,Wunderground v.1.15,2014-01-13 08:31:00,
2014-01-13 03:37:00,38.0,29.1,29.87,SW,222,4.0,9.0,70,0.00,,,0.00,Wunderground v.1.15,2014-01-13 08:37:00,
2014-01-13 03:43:00,37.9,29.0,29.87,SSW,204,5.0,9.0,70,0.00,,,0.00,Wunderground v.1.15,2014-01-13 08:43:00,
2014-01-13 03:48:00,37.9,29.0,29.87,SSW,212,4.0,9.0,70,0.00,,,0.00,Wunderground v.1.15,2014-01-13 08:48:00,
2014-01-13 03:54:00,37.7,28.8,29.86,SW,216,4.0,9.0,70,0.00,,,0.00,Wunderground v.1.15,2014-01-13 08:54:00,
2014-01-13 03:59:00,37.7,29.1,29.86,SW,219,4.0,9.0,71,0.00,,,0.00,Wunderground v.1.15,2014-01-13 08:59:00,
2014-01-13 04:05:00,37.9,29.0,29.86,SSW,213,4.0,7.0,70,0.00,,,0.00,Wunderground v.1.15,2014-01-13 09:05:00,
2014-01-13 04:11:00,37.8,28.9,29.86,SSW,203,4.0,5.0,70,0.00,,,0.00,Wunderground v.1.15,2014-01-13 09:11:00,
2014-01-13 04:16:00,37.7,29.1,29.85,SSW,205,4.0,6.0,71,0.00,,,0.00,Wunderground v.1.15,2014-01-13 09:16:00,
2014-01-13 04:22:00,37.7,28.8,29.85,SSW,211,4.0,4.0,70,0.00,,,0.00,Wunderground v.1.15,2014-01-13 09:22:00,
2014-01-13 04:27:00,37.9,29.0,29.85,SSW,211,4.0,7.0,70,0.00,,,0.00,weatherlink.com 1.10,2014-01-13 09:27:00,
2014-01-13 04:32:00,37.9,29.0,29.85,SW,218,4.0,8.0,70,0.00,,,0.00,Wunderground v.1.15,2014-01-13 09:32:00,
2014-01-13 04:38:00,37.8,28.9,29.84,South,187,3.0,8.0,70,0.00,,,0.00,Wunderground v.1.15,2014-01-13 09:38:00,
2014-01-13 04:43:00,37.7,28.4,29.84,South,188,3.0,8.0,69,0.00,,,0.00,Wunderground v.1.15,2014-01-13 09:43:00,
2014-01-13 04:49:00,37.7,28.4,29.83,SSW,204,3.0,8.0,69,0.00,,,0.00,Wunderground v.1.15,2014-01-13 09:49:00,
2014-01-13 04:54:00,37.7,28.4,29.83,South,188,3.0,8.0,69,0.00,,,0.00,Wunderground v.1.15,2014-01-13 09:54:00,
2014-01-13 05:00:00,37.5,28.2,29.83,South,179,3.0,4.0,69,0.00,,,0.00,Wunderground v.1.15,2014-01-13 10:00:00,
2014-01-13 05:06:00,37.5,28.2,29.83,SSW,199,3.0,4.0,69,0.00,,,0.00,Wunderground v.1.15,2014-01-13 10:06:00,
2014-01-13 05:12:00,37.6,28.0,29.83,SSW,194,6.0,6.0,68,0.00,,,0.00,weatherlink.com 1.10,2014-01-13 10:12:00,
2014-01-13 05:17:00,37.7,28.1,29.83,SW,217,3.0,5.0,68,0.00,,,0.00,Wunderground v.1.15,2014-01-13 10:17:00,
2014-01-13 05:23:00,37.9,27.9,29.83,SSW,206,3.0,3.0,67,0.00,,,0.00,Wunderground v.1.15,2014-01-13 10:23:00,
2014-01-13 05:28:00,37.9,27.9,29.82,SSW,192,3.0,6.0,67,0.00,,,0.00,Wunderground v.1.15,2014-01-13 10:28:00,
2014-01-13 05:34:00,37.8,27.8,29.82,SSW,193,2.0,8.0,67,0.00,,,0.00,Wunderground v.1.15,2014-01-13 10:34:00,
2014-01-13 05:39:00,37.8,27.8,29.82,SSW,211,2.0,8.0,67,0.00,,,0.00,Wunderground v.1.15,2014-01-13 10:39:00,
2014-01-13 05:44:00,37.9,27.9,29.82,SW,221,2.0,8.0,67,0.00,,,0.00,Wunderground v.1.15,2014-01-13 10:44:00,
2014-01-13 05:50:00,38.2,27.8,29.82,SSW,192,3.0,3.0,66,0.00,,,0.00,Wunderground v.1.15,2014-01-13 10:50:00,
2014-01-13 05:55:00,38.3,27.9,29.81,SW,228,3.0,8.0,66,0.00,,,0.00,Wunderground v.1.15,2014-01-13 10:55:00,
2014-01-13 06:00:00,38.7,28.3,29.81,SW,227,3.0,3.0,66,0.00,,,0.00,Wunderground v.1.15,2014-01-13 11:00:00,
2014-01-13 06:06:00,39.3,28.5,29.80,WSW,241,3.0,5.0,65,0.00,,,0.00,Wunderground v.1.15,2014-01-13 11:06:00,
2014-01-13 06:12:00,40.4,28.8,29.80,SSW,195,5.0,6.0,63,0.00,,,0.00,Wunderground v.1.15,2014-01-13 11:12:00,
2014-01-13 06:18:00,40.9,28.9,29.80,SSW,196,5.0,7.0,62,0.00,,,0.00,Wunderground v.1.15,2014-01-13 11:18:00,
2014-01-13 06:23:00,40.8,28.4,29.79,SW,230,3.0,4.0,61,0.00,,,0.00,Wunderground v.1.15,2014-01-13 11:23:00,
2014-01-13 06:29:00,40.8,28.0,29.79,SSW,210,3.0,6.0,61,0.00,,,0.00,weatherlink.com 1.10,2014-01-13 11:29:00,
2014-01-13 06:34:00,40.7,28.3,29.79,SW,216,3.0,7.0,61,0.00,,,0.00,Wunderground v.1.15,2014-01-13 11:34:00,
2014-01-13 06:41:00,40.6,28.2,29.79,South,179,2.0,7.0,61,0.00,,,0.00,Wunderground v.1.15,2014-01-13 11:41:00,
2014-01-13 06:46:00,40.5,28.1,29.79,South,190,2.0,7.0,61,0.00,,,0.00,Wunderground v.1.15,2014-01-13 11:46:00,
2014-01-13 06:51:00,40.4,28.0,29.79,SSW,207,2.0,7.0,61,0.00,,,0.00,Wunderground v.1.15,2014-01-13 11:51:00,
2014-01-13 06:57:00,40.2,28.2,29.79,South,177,2.0,7.0,62,0.00,,,0.00,Wunderground v.1.15,2014-01-13 11:57:00,
2014-01-13 07:02:00,40.0,28.0,29.79,WSW,240,1.0,1.0,62,0.00,,,0.00,Wunderground v.1.15,2014-01-13 12:02:00,
2014-01-13 07:07:00,39.7,28.1,29.78,SSW,205,1.0,2.0,63,0.00,,,0.00,Wunderground v.1.15,2014-01-13 12:07:00,
2014-01-13 07:13:00,39.5,28.0,29.79,SSW,211,1.0,2.0,63,0.00,,,0.00,weatherlink.com 1.10,2014-01-13 12:13:00,
2014-01-13 07:18:00,39.5,27.9,29.78,SSW,205,1.0,3.0,63,0.00,,,0.00,Wunderground v.1.15,2014-01-13 12:18:00,
2014-01-13 07:24:00,39.2,28.0,29.78,SSW,209,1.0,2.0,64,0.00,,,0.00,Wunderground v.1.15,2014-01-13 12:24:00,
2014-01-13 07:29:00,39.1,27.9,29.78,SSW,204,1.0,2.0,64,0.00,,,0.00,Wunderground v.1.15,2014-01-13 12:29:00,
2014-01-13 07:35:00,39.1,28.3,29.78,SSW,211,1.0,13.0,65,0.00,,,0.00,Wunderground v.1.15,2014-01-13 12:35:00,
2014-01-13 07:41:00,39.0,28.2,29.78,WSW,256,1.0,13.0,65,0.00,,,0.00,Wunderground v.1.15,2014-01-13 12:41:00,
2014-01-13 07:46:00,39.0,28.2,29.78,SSW,200,1.0,13.0,65,0.00,,,0.00,Wunderground v.1.15,2014-01-13 12:46:00,
2014-01-13 07:52:00,39.0,28.6,29.78,SSW,196,1.0,13.0,66,0.00,,,0.00,Wunderground v.1.15,2014-01-13 12:52:00,
2014-01-13 07:57:00,39.1,28.7,29.78,South,178,1.0,13.0,66,0.00,,,0.00,Wunderground v.1.15,2014-01-13 12:57:00,
2014-01-13 08:02:00,39.3,28.9,29.78,SSW,207,1.0,2.0,66,0.00,,,0.00,Wunderground v.1.15,2014-01-13 13:02:00,
2014-01-13 08:08:00,40.0,29.2,29.78,SSE,151,2.0,6.0,65,0.00,,,0.00,Wunderground v.1.15,2014-01-13 13:08:00,
2014-01-13 08:13:00,40.6,29.0,29.78,SW,214,3.0,7.0,64,0.00,,,0.00,weatherlink.com 1.10,2014-01-13 13:13:00,
2014-01-13 08:19:00,41.3,29.6,29.78,WSW,246,3.0,5.0,63,0.00,,,0.00,Wunderground v.1.15,2014-01-13 13:19:00,
2014-01-13 08:24:00,41.8,29.7,29.77,SW,223,4.0,4.0,62,0.00,,,0.00,Wunderground v.1.15,2014-01-13 13:24:00,
2014-01-13 08:30:00,42.2,30.1,29.77,WSW,238,4.0,4.0,62,0.00,,,0.00,Wunderground v.1.15,2014-01-13 13:30:00,
2014-01-13 08:36:00,42.7,30.2,29.77,SW,215,5.0,12.0,61,0.00,,,0.00,Wunderground v.1.15,2014-01-13 13:36:00,
2014-01-13 08:41:00,42.9,30.4,29.77,SSW,199,5.0,5.0,61,0.00,,,0.00,Wunderground v.1.15,2014-01-13 13:41:00,
2014-01-13 08:47:00,43.2,30.2,29.77,SW,221,5.0,8.0,60,0.00,,,0.00,Wunderground v.1.15,2014-01-13 13:47:00,
2014-01-13 08:52:00,43.5,30.1,29.77,SW,233,5.0,7.0,59,0.00,,,0.00,Wunderground v.1.15,2014-01-13 13:52:00,
2014-01-13 08:58:00,44.0,30.2,29.78,SSW,206,5.0,7.0,58,0.00,,,0.00,Wunderground v.1.15,2014-01-13 13:58:00,
2014-01-13 09:03:00,44.3,30.4,29.78,SSW,212,6.0,8.0,58,0.00,,,0.00,Wunderground v.1.15,2014-01-13 14:03:00,
2014-01-13 09:09:00,44.8,30.5,29.78,WSW,256,6.0,8.0,57,0.00,,,0.00,Wunderground v.1.15,2014-01-13 14:09:00,
2014-01-13 09:14:00,45.1,30.3,29.78,South,183,6.0,7.0,56,0.00,,,0.00,Wunderground v.1.15,2014-01-13 14:14:00,
2014-01-13 09:20:00,45.2,30.4,29.78,SSW,201,6.0,8.0,56,0.00,,,0.00,Wunderground v.1.15,2014-01-13 14:20:00,
2014-01-13 09:25:00,45.2,30.9,29.77,SW,221,5.0,8.0,57,0.00,,,0.00,Wunderground v.1.15,2014-01-13 14:25:00,
2014-01-13 09:31:00,45.6,30.8,29.77,SW,215,5.0,9.0,56,0.00,,,0.00,Wunderground v.1.15,2014-01-13 14:31:00,
2014-01-13 09:36:00,45.7,30.9,29.77,SSW,205,6.0,9.0,56,0.00,,,0.00,Wunderground v.1.15,2014-01-13 14:36:00,
2014-01-13 09:42:00,45.7,30.4,29.77,West,264,5.0,9.0,55,0.00,,,0.00,Wunderground v.1.15,2014-01-13 14:42:00,
2014-01-13 09:47:00,45.8,30.5,29.76,SSW,202,6.0,10.0,55,0.00,,,0.00,Wunderground v.1.15,2014-01-13 14:47:00,
2014-01-13 09:53:00,46.0,30.7,29.76,SW,224,6.0,9.0,55,0.00,,,0.00,Wunderground v.1.15,2014-01-13 14:53:00,
2014-01-13 09:58:00,46.6,31.3,29.76,WSW,249,5.0,9.0,55,0.00,,,0.00,Wunderground v.1.15,2014-01-13 14:58:00,
2014-01-13 10:05:00,47.2,31.4,29.77,West,261,6.0,10.0,54,0.00,,,0.00,Wunderground v.1.15,2014-01-13 15:05:00,
2014-01-13 10:10:00,47.6,31.3,29.76,SSW,203,6.0,7.0,53,0.00,,,0.00,Wunderground v.1.15,2014-01-13 15:10:00,
2014-01-13 10:16:00,47.8,31.0,29.76,SSW,203,6.0,7.0,52,0.00,,,0.00,Wunderground v.1.15,2014-01-13 15:16:00,
2014-01-13 10:21:00,47.8,31.0,29.76,WSW,248,7.0,7.0,52,0.00,,,0.00,Wunderground v.1.15,2014-01-13 15:21:00,
2014-01-13 10:27:00,47.8,31.0,29.76,SSW,202,7.0,8.0,52,0.00,,,0.00,Wunderground v.1.15,2014-01-13 15:27:00,
2014-01-13 10:32:00,47.8,30.5,29.76,SW,219,7.0,12.0,51,0.00,,,0.00,Wunderground v.1.15,2014-01-13 15:32:00,
2014-01-13 10:38:00,47.6,30.8,29.76,SSW,195,7.0,12.0,52,0.00,,,0.00,Wunderground v.1.15,2014-01-13 15:38:00,
2014-01-13 10:43:00,47.8,31.0,29.75,WSW,243,7.0,12.0,52,0.00,,,0.00,Wunderground v.1.15,2014-01-13 15:43:00,
2014-01-13 10:49:00,48.5,31.7,29.75,SW,220,7.0,12.0,52,0.00,,,0.00,Wunderground v.1.15,2014-01-13 15:49:00,
2014-01-13 10:54:00,48.8,31.5,29.75,SSW,195,7.0,12.0,51,0.00,,,0.00,Wunderground v.1.15,2014-01-13 15:54:00,
2014-01-13 11:00:00,48.6,31.0,29.75,WSW,249,10.0,11.0,51,0.00,,,0.00,weatherlink.com 1.10,2014-01-13 16:00:00,
2014-01-13 11:05:00,48.3,31.0,29.74,SW,229,6.0,8.0,51,0.00,,,0.00,Wunderground v.1.15,2014-01-13 16:05:00,
2014-01-13 11:10:00,48.1,31.3,29.74,SW,225,6.0,6.0,52,0.00,,,0.00,Wunderground v.1.15,2014-01-13 16:10:00,
2014-01-13 11:16:00,48.0,31.2,29.73,SW,217,6.0,9.0,52,0.00,,,0.00,Wunderground v.1.15,2014-01-13 16:16:00,
2014-01-13 11:21:00,48.1,31.3,29.72,WSW,244,6.0,11.0,52,0.00,,,0.00,Wunderground v.1.15,2014-01-13 16:21:00,
2014-01-13 11:27:00,48.1,31.3,29.73,SW,226,6.0,11.0,52,0.00,,,0.00,Wunderground v.1.15,2014-01-13 16:27:00,
2014-01-13 11:32:00,48.1,31.3,29.72,WNW,298,5.0,13.0,52,0.00,,,0.00,Wunderground v.1.15,2014-01-13 16:32:00,
2014-01-13 11:37:00,48.3,31.5,29.72,SSE,155,4.0,13.0,52,0.00,,,0.00,Wunderground v.1.15,2014-01-13 16:37:00,
2014-01-13 11:43:00,48.4,31.6,29.72,WSW,239,4.0,13.0,52,0.00,,,0.00,Wunderground v.1.15,2014-01-13 16:43:00,
2014-01-13 11:48:00,48.5,31.7,29.73,SW,233,4.0,13.0,52,0.00,,,0.00,Wunderground v.1.15,2014-01-13 16:48:00,
2014-01-13 11:54:00,48.8,31.9,29.73,South,188,5.0,13.0,52,0.00,,,0.00,Wunderground v.1.15,2014-01-13 16:54:00,
2014-01-13 11:59:00,48.8,31.5,29.73,SW,231,6.0,13.0,51,0.00,,,0.00,Wunderground v.1.15,2014-01-13 16:59:00,
2014-01-13 12:04:00,49.1,32.2,29.72,WSW,238,7.0,15.0,52,0.00,,,0.00,Wunderground v.1.15,2014-01-13 17:04:00,
2014-01-13 12:10:00,49.4,31.5,29.70,South,174,7.0,7.0,50,0.00,,,0.00,Wunderground v.1.15,2014-01-13 17:10:00,
2014-01-13 12:16:00,49.6,31.0,29.69,SW,227,14.0,14.0,50,0.00,,,0.00,weatherlink.com 1.10,2014-01-13 17:16:00,
2014-01-13 12:21:00,49.6,31.7,29.69,SSW,205,6.0,6.0,50,0.00,,,0.00,Wunderground v.1.15,2014-01-13 17:21:00,
2014-01-13 12:26:00,49.6,31.7,29.69,SW,220,6.0,10.0,50,0.00,,,0.00,Wunderground v.1.15,2014-01-13 17:26:00,
2014-01-13 12:31:00,49.8,31.9,29.69,SSW,203,6.0,7.0,50,0.00,,,0.00,Wunderground v.1.15,2014-01-13 17:31:00,
2014-01-13 12:37:00,50.0,32.1,29.69,SSW,209,6.0,12.0,50,0.00,,,0.00,Wunderground v.1.15,2014-01-13 17:37:00,
2014-01-13 12:42:00,50.2,32.3,29.69,SW,233,5.0,12.0,50,0.00,,,0.00,Wunderground v.1.15,2014-01-13 17:42:00,
2014-01-13 12:48:00,50.5,32.0,29.68,WSW,247,6.0,12.0,49,0.00,,,0.00,Wunderground v.1.15,2014-01-13 17:48:00,
2014-01-13 12:54:00,50.7,32.2,29.68,SW,217,7.0,12.0,49,0.00,,,0.00,Wunderground v.1.15,2014-01-13 17:54:00,
2014-01-13 13:00:00,50.6,32.1,29.68,SSW,210,6.0,6.0,49,0.00,,,0.00,Wunderground v.1.15,2014-01-13 18:00:00,
2014-01-13 13:06:00,50.5,32.0,29.68,SSW,206,6.0,9.0,49,0.00,,,0.00,Wunderground v.1.15,2014-01-13 18:06:00,
2014-01-13 13:12:00,50.6,32.6,29.67,SW,231,6.0,6.0,50,0.00,,,0.00,Wunderground v.1.15,2014-01-13 18:12:00,
2014-01-13 13:17:00,51.0,32.5,29.68,SSW,193,6.0,6.0,49,0.00,,,0.00,Wunderground v.1.15,2014-01-13 18:17:00,
2014-01-13 13:23:00,51.5,32.4,29.67,SW,218,5.0,5.0,48,0.00,,,0.00,Wunderground v.1.15,2014-01-13 18:23:00,
2014-01-13 13:30:00,51.9,32.8,29.68,WSW,250,6.0,7.0,48,0.00,,,0.00,Wunderground v.1.15,2014-01-13 18:30:00,
2014-01-13 13:38:00,51.9,32.8,29.68,SW,219,6.0,20.0,48,0.00,,,0.00,Wunderground v.1.15,2014-01-13 18:38:00,
2014-01-13 13:45:00,51.9,32.8,29.67,SW,232,6.0,20.0,48,0.00,,,0.00,Wunderground v.1.15,2014-01-13 18:45:00,
2014-01-13 13:51:00,51.8,33.2,29.67,South,191,5.0,20.0,49,0.00,,,0.00,Wunderground v.1.15,2014-01-13 18:51:00,
2014-01-13 13:57:00,51.8,32.7,29.67,SSW,212,6.0,20.0,48,0.00,,,0.00,Wunderground v.1.15,2014-01-13 18:57:00,
2014-01-13 14:02:00,51.7,32.6,29.67,SW,231,6.0,7.0,48,0.00,,,0.00,Wunderground v.1.15,2014-01-13 19:02:00,
2014-01-13 14:08:00,51.6,32.5,29.66,SSW,195,6.0,9.0,48,0.00,,,0.00,Wunderground v.1.15,2014-01-13 19:08:00,
2014-01-13 14:14:00,51.6,32.5,29.66,SSW,195,6.0,9.0,48,0.00,,,0.00,Wunderground v.1.15,2014-01-13 19:14:00,
2014-01-13 14:19:00,51.6,32.5,29.66,SW,231,6.0,9.0,48,0.00,,,0.00,Wunderground v.1.15,2014-01-13 19:19:00,
2014-01-13 14:25:00,51.4,33.4,29.65,SSW,200,5.0,6.0,50,0.00,,,0.00,Wunderground v.1.15,2014-01-13 19:25:00,
2014-01-13 14:30:00,51.4,32.9,29.65,SSW,211,4.0,6.0,49,0.00,,,0.00,Wunderground v.1.15,2014-01-13 19:30:00,
2014-01-13 14:35:00,51.4,32.3,29.65,South,190,5.0,14.0,48,0.00,,,0.00,Wunderground v.1.15,2014-01-13 19:35:00,
2014-01-13 14:41:00,51.4,32.3,29.66,SSW,195,5.0,14.0,48,0.00,,,0.00,Wunderground v.1.15,2014-01-13 19:41:00,
2014-01-13 14:46:00,51.3,32.8,29.66,SW,219,4.0,14.0,49,0.00,,,0.00,Wunderground v.1.15,2014-01-13 19:46:00,
2014-01-13 14:52:00,51.2,32.7,29.67,SW,233,4.0,14.0,49,0.00,,,0.00,Wunderground v.1.15,2014-01-13 19:52:00,
2014-01-13 14:57:00,51.2,32.7,29.66,SW,235,5.0,14.0,49,0.00,,,0.00,Wunderground v.1.15,2014-01-13 19:57:00,
2014-01-13 15:02:00,51.2,32.7,29.66,SSW,200,5.0,7.0,49,0.00,,,0.00,Wunderground v.1.15,2014-01-13 20:02:00,
2014-01-13 15:09:00,51.3,32.8,29.66,SW,215,6.0,11.0,49,0.00,,,0.00,Wunderground v.1.15,2014-01-13 20:09:00,
2014-01-13 15:15:00,51.2,32.7,29.66,SW,233,6.0,7.0,49,0.00,,,0.00,Wunderground v.1.15,2014-01-13 20:15:00,
2014-01-13 15:20:00,51.1,32.6,29.66,SSW,201,6.0,7.0,49,0.00,,,0.00,Wunderground v.1.15,2014-01-13 20:20:00,
2014-01-13 15:26:00,51.1,32.6,29.66,West,262,6.0,7.0,49,0.00,,,0.00,Wunderground v.1.15,2014-01-13 20:26:00,
2014-01-13 15:31:00,51.2,32.0,29.66,WSW,238,4.0,13.0,49,0.00,,,0.00,weatherlink.com 1.10,2014-01-13 20:31:00,
2014-01-13 15:37:00,50.9,32.9,29.66,WSW,245,5.0,15.0,50,0.00,,,0.00,Wunderground v.1.15,2014-01-13 20:37:00,
2014-01-13 15:42:00,51.0,33.0,29.65,SW,229,5.0,15.0,50,0.00,,,0.00,Wunderground v.1.15,2014-01-13 20:42:00,
2014-01-13 15:48:00,50.9,32.9,29.66,SSW,194,5.0,15.0,50,0.00,,,0.00,Wunderground v.1.15,2014-01-13 20:48:00,
2014-01-13 15:54:00,50.9,32.9,29.66,SSW,202,5.0,15.0,50,0.00,,,0.00,Wunderground v.1.15,2014-01-13 20:54:00,
2014-01-13 15:59:00,50.8,33.3,29.66,SW,223,5.0,15.0,51,0.00,,,0.00,Wunderground v.1.15,2014-01-13 20:59:00,
2014-01-13 16:04:00,50.7,33.2,29.66,West,266,5.0,6.0,51,0.00,,,0.00,Wunderground v.1.15,2014-01-13 21:04:00,
2014-01-13 16:10:00,50.7,33.7,29.66,SSW,207,6.0,6.0,52,0.00,,,0.00,Wunderground v.1.15,2014-01-13 21:10:00,
2014-01-13 16:15:00,50.6,34.1,29.67,SSW,212,6.0,8.0,53,0.00,,,0.00,Wunderground v.1.15,2014-01-13 21:15:00,
2014-01-13 16:16:00,50.5,34.0,29.66,SW,216,5.0,14.0,53,0.00,,,0.00,weatherlink.com 1.10,2014-01-13 21:16:00,
2014-01-13 16:22:00,50.2,35.5,29.67,SSW,207,7.0,9.0,57,0.00,,,0.00,Wunderground v.1.15,2014-01-13 21:22:00,
2014-01-13 16:27:00,49.6,36.3,29.67,SW,233,7.0,9.0,60,0.00,,,0.00,Wunderground v.1.15,2014-01-13 21:27:00,
2014-01-13 16:33:00,48.9,36.9,29.68,SSW,207,6.0,13.0,63,0.00,,,0.00,Wunderground v.1.15,2014-01-13 21:33:00,
2014-01-13 16:38:00,48.1,37.3,29.68,SW,215,6.0,13.0,66,0.00,,,0.00,Wunderground v.1.15,2014-01-13 21:38:00,
2014-01-13 16:44:00,47.3,38.4,29.68,SW,230,6.0,13.0,71,0.00,,,0.00,Wunderground v.1.15,2014-01-13 21:44:00,
2014-01-13 16:50:00,46.3,38.8,29.69,WSW,253,6.0,13.0,75,0.00,,,0.00,Wunderground v.1.15,2014-01-13 21:50:00,
2014-01-13 16:55:00,45.7,39.2,29.69,SW,229,6.0,13.0,78,0.00,,,0.00,Wunderground v.1.15,2014-01-13 21:55:00,
2014-01-13 17:00:00,45.1,39.3,29.69,SSW,205,6.0,6.0,80,0.00,,,0.00,Wunderground v.1.15,2014-01-13 22:00:00,
2014-01-13 17:06:00,44.7,39.5,29.69,SSW,211,6.0,7.0,82,0.00,,,0.00,Wunderground v.1.15,2014-01-13 22:06:00,
2014-01-13 17:13:00,44.3,39.5,29.68,WSW,239,6.0,7.0,83,0.00,,,0.00,Wunderground v.1.15,2014-01-13 22:13:00,
2014-01-13 17:19:00,44.0,39.5,29.68,SW,231,7.0,11.0,84,0.00,,,0.00,Wunderground v.1.15,2014-01-13 22:19:00,
2014-01-13 17:25:00,43.8,39.9,29.68,SSW,211,6.0,7.0,86,0.00,,,0.00,Wunderground v.1.15,2014-01-13 22:25:00,
2014-01-13 17:30:00,43.6,39.7,29.67,SSW,207,5.0,5.0,86,0.00,,,0.00,Wunderground v.1.15,2014-01-13 22:30:00,
2014-01-13 17:35:00,43.4,39.8,29.67,SW,216,5.0,17.0,87,0.00,,,0.00,Wunderground v.1.15,2014-01-13 22:35:00,
2014-01-13 17:41:00,43.3,40.0,29.67,SW,221,5.0,17.0,88,0.00,,,0.00,Wunderground v.1.15,2014-01-13 22:41:00,
2014-01-13 17:46:00,43.1,40.0,29.67,SW,217,5.0,9.0,88,0.00,,,0.00,weatherlink.com 1.10,2014-01-13 22:46:00,
2014-01-13 17:52:00,43.3,40.3,29.67,SW,219,5.0,17.0,89,0.00,,,0.01,Wunderground v.1.15,2014-01-13 22:52:00,
2014-01-13 17:57:00,43.4,40.1,29.66,SSW,212,6.0,17.0,88,0.00,,,0.01,Wunderground v.1.15,2014-01-13 22:57:00,
2014-01-13 18:03:00,43.4,40.0,29.66,SW,226,8.0,12.0,89,0.01,,,0.01,weatherlink.com 1.10,2014-01-13 23:03:00,
2014-01-13 18:08:00,43.4,40.4,29.65,SSE,167,6.0,8.0,89,0.00,,,0.01,Wunderground v.1.15,2014-01-13 23:08:00,
2014-01-13 18:14:00,43.3,40.3,29.65,South,182,5.0,10.0,89,0.00,,,0.01,Wunderground v.1.15,2014-01-13 23:14:00,
2014-01-13 18:19:00,43.4,40.4,29.64,SSE,149,5.0,10.0,89,0.00,,,0.01,Wunderground v.1.15,2014-01-13 23:19:00,
2014-01-13 18:24:00,43.4,40.4,29.65,SW,221,6.0,9.0,89,0.00,,,0.01,Wunderground v.1.15,2014-01-13 23:24:00,
2014-01-13 18:30:00,43.5,40.5,29.65,South,184,6.0,6.0,89,0.00,,,0.01,Wunderground v.1.15,2014-01-13 23:30:00,
2014-01-13 18:35:00,43.7,40.7,29.65,WSW,240,6.0,16.0,89,0.00,,,0.01,Wunderground v.1.15,2014-01-13 23:35:00,
2014-01-13 18:41:00,43.8,40.5,29.65,South,182,7.0,16.0,88,0.00,,,0.01,Wunderground v.1.15,2014-01-13 23:41:00,
2014-01-13 18:46:00,43.9,40.6,29.65,SW,214,6.0,16.0,88,0.00,,,0.01,Wunderground v.1.15,2014-01-13 23:46:00,
2014-01-13 18:51:00,44.0,40.7,29.65,SW,214,7.0,16.0,88,0.00,,,0.01,Wunderground v.1.15,2014-01-13 23:51:00,
2014-01-13 18:57:00,44.0,40.7,29.65,SSW,211,6.0,16.0,88,0.00,,,0.01,Wunderground v.1.15,2014-01-13 23:57:00,
2014-01-13 19:02:00,44.1,41.0,29.64,SW,235,5.0,11.0,88,0.00,,,0.01,weatherlink.com 1.10,2014-01-14 00:02:00,
2014-01-13 19:08:00,44.2,40.6,29.64,SW,231,6.0,9.0,87,0.00,,,0.01,Wunderground v.1.15,2014-01-14 00:08:00,
2014-01-13 19:13:00,44.2,40.6,29.64,SW,229,7.0,10.0,87,0.00,,,0.01,Wunderground v.1.15,2014-01-14 00:13:00,
2014-01-13 19:19:00,44.3,40.7,29.64,WSW,238,7.0,12.0,87,0.00,,,0.01,Wunderground v.1.15,2014-01-14 00:19:00,
2014-01-13 19:24:00,44.5,40.9,29.65,SW,217,8.0,11.0,87,0.00,,,0.01,Wunderground v.1.15,2014-01-14 00:24:00,
2014-01-13 19:30:00,44.6,41.0,29.64,South,181,8.0,8.0,87,0.00,,,0.01,Wunderground v.1.15,2014-01-14 00:30:00,
2014-01-13 19:36:00,44.8,40.9,29.64,SW,236,7.0,13.0,86,0.00,,,0.01,Wunderground v.1.15,2014-01-14 00:36:00,
2014-01-13 19:41:00,45.0,41.1,29.64,SW,229,8.0,13.0,86,0.00,,,0.01,Wunderground v.1.15,2014-01-14 00:41:00,
2014-01-13 19:47:00,45.1,41.0,29.64,SSW,198,5.0,17.0,86,0.00,,,0.01,weatherlink.com 1.10,2014-01-14 00:47:00,
2014-01-13 19:52:00,45.0,41.1,29.64,SW,233,6.0,13.0,86,0.00,,,0.01,Wunderground v.1.15,2014-01-14 00:52:00,
2014-01-13 19:58:00,45.1,41.2,29.64,SW,222,6.0,13.0,86,0.00,,,0.01,Wunderground v.1.15,2014-01-14 00:58:00,
2014-01-13 20:03:00,45.2,41.0,29.64,WSW,245,7.0,11.0,86,0.00,,,0.01,weatherlink.com 1.10,2014-01-14 01:03:00,
2014-01-13 20:09:00,45.2,41.3,29.64,SW,224,6.0,12.0,86,0.00,,,0.01,Wunderground v.1.15,2014-01-14 01:09:00,
2014-01-13 20:14:00,45.2,41.3,29.64,SW,223,7.0,13.0,86,0.00,,,0.01,Wunderground v.1.15,2014-01-14 01:14:00,
2014-01-13 20:20:00,45.3,41.4,29.64,WSW,240,7.0,7.0,86,0.00,,,0.01,Wunderground v.1.15,2014-01-14 01:20:00,
2014-01-13 20:26:00,45.3,41.4,29.64,SSW,208,6.0,8.0,86,0.00,,,0.01,Wunderground v.1.15,2014-01-14 01:26:00,
2014-01-13 20:32:00,45.3,41.0,29.64,SW,225,5.0,12.0,86,0.00,,,0.01,weatherlink.com 1.10,2014-01-14 01:32:00,
2014-01-13 20:37:00,45.3,41.4,29.63,SW,219,5.0,15.0,86,0.00,,,0.01,Wunderground v.1.15,2014-01-14 01:37:00,
2014-01-13 20:43:00,45.3,41.4,29.64,SSW,202,5.0,15.0,86,0.00,,,0.01,Wunderground v.1.15,2014-01-14 01:43:00,
2014-01-13 20:48:00,45.3,41.0,29.64,WSW,248,6.0,11.0,86,0.00,,,0.01,weatherlink.com 1.10,2014-01-14 01:48:00,
2014-01-13 20:54:00,45.4,41.5,29.64,SSW,210,5.0,15.0,86,0.00,,,0.01,Wunderground v.1.15,2014-01-14 01:54:00,
2014-01-13 20:59:00,45.3,41.7,29.64,SSW,210,5.0,15.0,87,0.00,,,0.01,Wunderground v.1.15,2014-01-14 01:59:00,
2014-01-13 21:05:00,45.3,42.0,29.64,SW,219,6.0,9.0,88,0.00,,,0.01,Wunderground v.1.15,2014-01-14 02:05:00,
2014-01-13 21:10:00,45.1,41.8,29.64,SSW,210,5.0,8.0,88,0.00,,,0.01,Wunderground v.1.15,2014-01-14 02:10:00,
2014-01-13 21:15:00,45.1,42.1,29.64,WSW,248,6.0,9.0,89,0.00,,,0.01,Wunderground v.1.15,2014-01-14 02:15:00,
2014-01-13 21:21:00,45.0,42.0,29.64,WSW,245,5.0,8.0,89,0.00,,,0.01,Wunderground v.1.15,2014-01-14 02:21:00,
2014-01-13 21:26:00,44.9,42.1,29.64,SW,227,5.0,8.0,90,0.00,,,0.01,Wunderground v.1.15,2014-01-14 02:26:00,
2014-01-13 21:31:00,44.9,42.1,29.64,SSW,200,5.0,13.0,90,0.00,,,0.01,Wunderground v.1.15,2014-01-14 02:31:00,
2014-01-13 21:37:00,44.8,42.0,29.64,SSW,194,5.0,13.0,90,0.00,,,0.01,Wunderground v.1.15,2014-01-14 02:37:00,
2014-01-13 21:42:00,44.7,42.2,29.64,SW,219,5.0,13.0,91,0.00,,,0.01,Wunderground v.1.15,2014-01-14 02:42:00,
2014-01-13 21:48:00,44.6,42.0,29.64,SW,232,6.0,9.0,91,0.00,,,0.01,weatherlink.com 1.10,2014-01-14 02:48:00,
2014-01-13 21:53:00,44.5,42.0,29.64,SSW,210,5.0,13.0,91,0.00,,,0.01,Wunderground v.1.15,2014-01-14 02:53:00,
2014-01-13 21:59:00,44.5,42.3,29.64,South,180,5.0,13.0,92,0.00,,,0.02,Wunderground v.1.15,2014-01-14 02:59:00,
2014-01-13 22:04:00,44.4,42.0,29.64,WSW,242,6.0,8.0,92,0.01,,,0.02,weatherlink.com 1.10,2014-01-14 03:04:00,
2014-01-13 22:09:00,44.4,42.2,29.64,SW,233,5.0,7.0,92,0.00,,,0.02,Wunderground v.1.15,2014-01-14 03:09:00,
2014-01-13 22:15:00,44.4,42.2,29.64,SSW,210,5.0,7.0,92,0.00,,,0.02,Wunderground v.1.15,2014-01-14 03:15:00,
2014-01-13 22:21:00,44.4,42.2,29.64,SSW,204,5.0,5.0,92,0.00,,,0.02,Wunderground v.1.15,2014-01-14 03:21:00,
2014-01-13 22:26:00,44.3,42.1,29.63,WSW,248,5.0,6.0,92,0.00,,,0.02,Wunderground v.1.15,2014-01-14 03:26:00,
2014-01-13 22:31:00,44.3,42.1,29.63,SW,226,5.0,6.0,92,0.00,,,0.03,Wunderground v.1.15,2014-01-14 03:31:00,
2014-01-13 22:37:00,44.3,42.1,29.63,SSW,197,5.0,13.0,92,0.00,,,0.03,Wunderground v.1.15,2014-01-14 03:37:00,
2014-01-13 22:42:00,44.3,42.1,29.63,SW,233,4.0,13.0,92,0.00,,,0.03,Wunderground v.1.15,2014-01-14 03:42:00,
2014-01-13 22:48:00,44.3,42.1,29.63,SW,235,4.0,13.0,92,0.00,,,0.03,Wunderground v.1.15,2014-01-14 03:48:00,
2014-01-13 22:53:00,44.3,42.1,29.62,SW,235,5.0,13.0,92,0.00,,,0.03,Wunderground v.1.15,2014-01-14 03:53:00,
2014-01-13 22:58:00,44.3,42.1,29.62,SSW,213,4.0,13.0,92,0.00,,,0.03,Wunderground v.1.15,2014-01-14 03:58:00,
2014-01-13 23:04:00,44.3,42.1,29.62,WSW,248,4.0,7.0,92,0.00,,,0.03,Wunderground v.1.15,2014-01-14 04:04:00,
2014-01-13 23:10:00,44.3,42.1,29.62,SW,232,4.0,4.0,92,0.00,,,0.03,Wunderground v.1.15,2014-01-14 04:10:00,
2014-01-13 23:15:00,44.2,42.3,29.62,SSW,208,3.0,6.0,93,0.00,,,0.03,Wunderground v.1.15,2014-01-14 04:15:00,
2014-01-13 23:20:00,44.1,42.2,29.62,SW,224,3.0,3.0,93,0.00,,,0.03,Wunderground v.1.15,2014-01-14 04:20:00,
2014-01-13 23:26:00,44.1,42.2,29.62,SW,229,3.0,6.0,93,0.00,,,0.03,Wunderground v.1.15,2014-01-14 04:26:00,
2014-01-13 23:32:00,44.1,42.2,29.61,SW,226,4.0,11.0,93,0.00,,,0.03,Wunderground v.1.15,2014-01-14 04:32:00,
2014-01-13 23:37:00,44.1,42.2,29.61,SSW,200,4.0,11.0,93,0.00,,,0.03,Wunderground v.1.15,2014-01-14 04:37:00,
2014-01-13 23:43:00,44.1,42.2,29.61,SW,218,3.0,11.0,93,0.00,,,0.03,Wunderground v.1.15,2014-01-14 04:43:00,
2014-01-13 23:48:00,44.2,42.0,29.61,South,190,3.0,7.0,92,0.00,,,0.03,weatherlink.com 1.10,2014-01-14 04:48:00,
2014-01-13 23:53:00,44.1,42.2,29.61,SW,236,3.0,11.0,93,0.00,,,0.04,Wunderground v.1.15,2014-01-14 04:53:00,
2014-01-13 23:59:00,44.1,42.2,29.61,SSW,208,4.0,11.0,93,0.00,,,0.04,Wunderground v.1.15,2014-01-14 04:59:00,